WXM80 ListenWXM80 Stop

You find our weather info also at:

UK Metoffice

WeatherCloud

Weather Underground

Northeastern Weather Network

AWEKAS

Citizen Weather Observer Program (CWOP)

HAMweather, WeatherForYou, PWS Weather


Weather Underground History page Text

Daily Summary for May 15, 2017 Units:  English    Metric   Both
« Previous Day
Next Day »
Daily Weekly Monthly Yearly Custom
  High: Low: Average:
Temperature: 67.6 °F 52.5 °F 59.9 °F
Dew Point: 51.3 °F 45.3 °F 48.1 °F
Humidity: 80 % 52 % 66 %
Wind Speed: 10.9 mph 1.2 mph 5.1 mph
Wind Gust: 21.0 mph - -
Wind:- - WNW
Pressure: 29.86 in 29.55 in -
Precipitation: 0.00 in    
Historical Graphs
 
 
Tabular Data for May 15, 2017
Time Temperature Dew Point Pressure Wind Wind Speed Wind Gust Humidity Rainfall Rate (Hourly)
00:00 54.9 °F 45.7 °F 29.56 in West 4.1 mph 15.0 mph 71 % 0.00 in
00:01 54.9 °F 45.3 °F 29.56 in WNW 7.3 mph 15.0 mph 70 % 0.00 in
00:06 54.8 °F 45.6 °F 29.56 in WNW 5.6 mph 18.0 mph 71 % 0.00 in
00:11 54.8 °F 45.6 °F 29.56 in NW 7.9 mph 11.5 mph 71 % 0.00 in
00:16 54.8 °F 45.6 °F 29.55 in WNW 8.1 mph 10.4 mph 71 % 0.00 in
00:21 54.8 °F 45.6 °F 29.56 in NW 3.3 mph 8.1 mph 71 % 0.00 in
00:26 54.7 °F 45.8 °F 29.56 in NW 4.7 mph 8.1 mph 72 % 0.00 in
00:31 54.6 °F 45.8 °F 29.56 in West 5.8 mph 12.7 mph 72 % 0.00 in
00:36 54.5 °F 45.7 °F 29.56 in NNW 3.0 mph 6.0 mph 72 % 0.00 in
00:41 54.4 °F 45.6 °F 29.56 in WNW 3.3 mph 8.1 mph 72 % 0.00 in
00:46 54.3 °F 45.8 °F 29.56 in NW 3.8 mph 9.0 mph 73 % 0.00 in
00:51 54.2 °F 45.7 °F 29.55 in West 4.0 mph 11.0 mph 73 % 0.00 in
00:56 54.1 °F 45.6 °F 29.55 in WSW 6.3 mph 9.2 mph 73 % 0.00 in
01:01 54.0 °F 45.5 °F 29.55 in WSW 5.6 mph 6.9 mph 73 % 0.00 in
01:07 53.9 °F 45.4 °F 29.55 in West 5.3 mph 11.5 mph 73 % 0.00 in
01:12 53.8 °F 45.7 °F 29.55 in NW 3.0 mph 11.5 mph 74 % 0.00 in
01:17 53.7 °F 45.6 °F 29.56 in West 5.2 mph 11.5 mph 74 % 0.00 in
01:22 53.6 °F 45.5 °F 29.56 in SSW 2.2 mph 8.1 mph 74 % 0.00 in
01:27 53.5 °F 45.4 °F 29.56 in West 5.1 mph 7.0 mph 74 % 0.00 in
01:32 53.4 °F 45.7 °F 29.56 in NNW 5.9 mph 11.5 mph 75 % 0.00 in
01:37 53.4 °F 45.3 °F 29.56 in NW 6.5 mph 8.1 mph 74 % 0.00 in
01:42 53.3 °F 45.6 °F 29.55 in West 4.8 mph 9.2 mph 75 % 0.00 in
01:47 53.3 °F 45.6 °F 29.55 in West 4.2 mph 6.9 mph 75 % 0.00 in
01:52 53.2 °F 45.5 °F 29.55 in WSW 6.8 mph 16.1 mph 75 % 0.00 in
01:57 53.2 °F 45.5 °F 29.55 in West 4.5 mph 13.8 mph 75 % 0.00 in
02:02 53.1 °F 45.4 °F 29.55 in West 5.1 mph 11.5 mph 75 % 0.00 in
02:07 53.0 °F 45.6 °F 29.55 in WSW 5.3 mph 12.7 mph 76 % 0.00 in
02:12 52.9 °F 45.5 °F 29.55 in SW 5.5 mph 11.5 mph 76 % 0.00 in
02:17 52.8 °F 45.4 °F 29.56 in WNW 4.8 mph 10.4 mph 76 % 0.00 in
02:22 52.7 °F 45.7 °F 29.55 in SW 6.8 mph 11.5 mph 77 % 0.00 in
02:27 52.6 °F 45.6 °F 29.56 in West 4.7 mph 11.5 mph 77 % 0.00 in
02:32 52.6 °F 45.6 °F 29.55 in WSW 5.3 mph 10.4 mph 77 % 0.00 in
02:37 52.5 °F 45.8 °F 29.56 in SW 2.8 mph 7.0 mph 78 % 0.00 in
02:42 52.5 °F 45.5 °F 29.56 in WNW 8.8 mph 12.0 mph 77 % 0.00 in
02:47 52.5 °F 45.8 °F 29.56 in WSW 6.6 mph 13.8 mph 78 % 0.00 in
02:52 52.5 °F 45.5 °F 29.55 in WSW 5.0 mph 11.5 mph 77 % 0.00 in
02:57 52.5 °F 45.8 °F 29.56 in SW 6.5 mph 7.0 mph 78 % 0.00 in
03:02 52.5 °F 45.8 °F 29.56 in WSW 4.1 mph 13.8 mph 78 % 0.00 in
03:07 52.5 °F 45.8 °F 29.56 in WNW 2.5 mph 6.9 mph 78 % 0.00 in
03:12 52.5 °F 45.8 °F 29.56 in WSW 6.1 mph 13.8 mph 78 % 0.00 in
03:18 52.5 °F 45.8 °F 29.55 in West 4.4 mph 16.1 mph 78 % 0.00 in
03:23 52.5 °F 45.8 °F 29.56 in West 5.2 mph 9.2 mph 78 % 0.00 in
03:28 52.6 °F 45.9 °F 29.55 in SW 4.0 mph 11.5 mph 78 % 0.00 in
03:33 52.6 °F 45.6 °F 29.56 in SSW 6.6 mph 17.3 mph 77 % 0.00 in
03:38 52.6 °F 45.9 °F 29.55 in West 6.9 mph 10.4 mph 78 % 0.00 in
03:43 52.7 °F 46.0 °F 29.55 in WSW 7.0 mph 11.5 mph 78 % 0.00 in
03:48 52.8 °F 45.8 °F 29.55 in West 5.6 mph 11.5 mph 77 % 0.00 in
03:53 52.8 °F 45.8 °F 29.56 in WNW 6.5 mph 11.5 mph 77 % 0.00 in
03:58 52.8 °F 45.8 °F 29.55 in West 6.9 mph 11.5 mph 77 % 0.00 in
04:03 52.8 °F 46.1 °F 29.55 in NW 3.7 mph 8.1 mph 78 % 0.00 in
04:08 52.9 °F 46.2 °F 29.56 in WNW 4.1 mph 11.5 mph 78 % 0.00 in
04:13 52.9 °F 46.2 °F 29.55 in WNW 6.1 mph 10.4 mph 78 % 0.00 in
04:18 52.9 °F 46.2 °F 29.56 in West 5.5 mph 11.5 mph 78 % 0.00 in
04:19 52.9 °F 46.2 °F 29.55 in WNW 4.1 mph 11.5 mph 78 % 0.00 in
04:24 52.9 °F 46.2 °F 29.55 in NW 6.0 mph 13.8 mph 78 % 0.00 in
04:29 52.9 °F 46.2 °F 29.56 in West 1.2 mph 11.5 mph 78 % 0.00 in
04:34 53.0 °F 46.3 °F 29.56 in West 5.1 mph 12.7 mph 78 % 0.00 in
04:39 53.0 °F 46.7 °F 29.56 in NNW 4.2 mph 8.0 mph 79 % 0.00 in
04:44 53.1 °F 46.8 °F 29.56 in WNW 4.8 mph 8.1 mph 79 % 0.00 in
04:49 53.1 °F 46.8 °F 29.56 in WNW 7.1 mph 13.0 mph 79 % 0.00 in
04:54 53.1 °F 46.8 °F 29.56 in West 2.6 mph 11.5 mph 79 % 0.00 in
04:59 53.1 °F 46.8 °F 29.56 in WSW 5.6 mph 9.2 mph 79 % 0.00 in
05:04 53.1 °F 46.8 °F 29.56 in West 6.6 mph 11.5 mph 79 % 0.00 in
05:09 53.2 °F 47.2 °F 29.57 in WNW 5.1 mph 16.1 mph 80 % 0.00 in
05:14 53.2 °F 47.2 °F 29.56 in WNW 5.1 mph 12.7 mph 80 % 0.00 in
05:19 53.3 °F 47.3 °F 29.57 in West 5.5 mph 10.4 mph 80 % 0.00 in
05:24 53.3 °F 47.3 °F 29.57 in WNW 4.3 mph 9.0 mph 80 % 0.00 in
05:29 53.4 °F 47.4 °F 29.57 in WNW 4.1 mph 12.7 mph 80 % 0.00 in
05:34 53.5 °F 47.5 °F 29.58 in WSW 5.3 mph 9.2 mph 80 % 0.00 in
05:39 53.6 °F 47.6 °F 29.58 in WNW 6.8 mph 14.0 mph 80 % 0.00 in
05:44 53.7 °F 47.7 °F 29.58 in WNW 7.9 mph 12.0 mph 80 % 0.00 in
05:49 53.7 °F 47.7 °F 29.59 in WNW 6.2 mph 14.0 mph 80 % 0.00 in
05:54 53.7 °F 47.7 °F 29.58 in WNW 5.0 mph 7.0 mph 80 % 0.00 in
05:59 53.8 °F 47.8 °F 29.58 in WNW 1.7 mph 4.6 mph 80 % 0.00 in
06:04 53.9 °F 47.5 °F 29.59 in West 5.3 mph 9.0 mph 79 % 0.00 in
06:09 53.9 °F 47.5 °F 29.59 in WNW 3.1 mph 8.0 mph 79 % 0.00 in
06:14 54.0 °F 48.0 °F 29.59 in WNW 4.5 mph 9.2 mph 80 % 0.00 in
06:19 54.0 °F 47.6 °F 29.59 in West 4.0 mph 9.2 mph 79 % 0.00 in
06:24 54.1 °F 47.7 °F 29.59 in WSW 4.1 mph 12.0 mph 79 % 0.00 in
06:29 54.2 °F 47.8 °F 29.59 in West 3.5 mph 10.0 mph 79 % 0.00 in
06:34 54.3 °F 47.9 °F 29.59 in West 5.0 mph 12.7 mph 79 % 0.00 in
06:39 54.4 °F 48.0 °F 29.60 in WSW 2.8 mph 6.0 mph 79 % 0.00 in
06:44 54.6 °F 48.2 °F 29.60 in WNW 2.7 mph 6.0 mph 79 % 0.00 in
06:49 54.8 °F 48.4 °F 29.60 in WNW 4.6 mph 10.4 mph 79 % 0.00 in
06:54 55.1 °F 48.7 °F 29.60 in West 7.1 mph 13.8 mph 79 % 0.00 in
06:59 55.4 °F 48.7 °F 29.60 in NNW 5.3 mph 13.0 mph 78 % 0.00 in
07:04 55.6 °F 48.5 °F 29.60 in NNW 4.4 mph 8.1 mph 77 % 0.00 in
07:09 55.9 °F 48.8 °F 29.60 in West 4.7 mph 13.8 mph 77 % 0.00 in
07:14 56.0 °F 48.9 °F 29.60 in WNW 4.6 mph 10.0 mph 77 % 0.00 in
07:19 56.3 °F 48.8 °F 29.61 in NW 2.8 mph 6.9 mph 76 % 0.00 in
07:24 56.4 °F 48.9 °F 29.61 in West 4.5 mph 11.0 mph 76 % 0.00 in
07:29 56.4 °F 48.9 °F 29.61 in WSW 2.9 mph 6.9 mph 76 % 0.00 in
07:34 56.4 °F 48.9 °F 29.61 in WNW 4.2 mph 5.8 mph 76 % 0.00 in
07:39 56.5 °F 49.0 °F 29.61 in WSW 5.2 mph 11.5 mph 76 % 0.00 in
07:44 56.5 °F 49.0 °F 29.61 in West 3.9 mph 11.5 mph 76 % 0.00 in
07:49 56.7 °F 49.6 °F 29.61 in NW 1.8 mph 4.6 mph 77 % 0.00 in
07:54 57.1 °F 50.0 °F 29.61 in WNW 4.8 mph 6.0 mph 77 % 0.00 in
08:00 57.4 °F 49.5 °F 29.62 in WNW 6.1 mph 11.5 mph 75 % 0.00 in
08:04 57.7 °F 49.8 °F 29.61 in WSW 3.2 mph 18.4 mph 75 % 0.00 in
08:09 57.8 °F 49.2 °F 29.62 in WNW 7.1 mph 11.5 mph 73 % 0.00 in
08:15 57.7 °F 49.5 °F 29.62 in West 4.5 mph 18.4 mph 74 % 0.00 in
08:20 57.9 °F 49.7 °F 29.62 in West 8.7 mph 17.3 mph 74 % 0.00 in
08:25 57.9 °F 49.3 °F 29.62 in WNW 8.3 mph 18.4 mph 73 % 0.00 in
08:27 57.9 °F 49.3 °F 29.62 in NW 9.5 mph 15.0 mph 73 % 0.00 in
08:32 57.9 °F 48.9 °F 29.62 in NW 6.0 mph 11.5 mph 72 % 0.00 in
08:37 57.9 °F 49.3 °F 29.62 in WNW 7.6 mph 11.5 mph 73 % 0.00 in
08:42 58.0 °F 49.0 °F 29.63 in WNW 7.0 mph 16.1 mph 72 % 0.00 in
08:47 58.1 °F 48.7 °F 29.63 in SW 10.0 mph 15.0 mph 71 % 0.00 in
08:52 58.2 °F 48.8 °F 29.63 in SW 8.2 mph 13.8 mph 71 % 0.00 in
08:57 58.2 °F 49.2 °F 29.63 in NW 6.8 mph 17.3 mph 72 % 0.00 in
08:58 58.2 °F 49.2 °F 29.63 in WNW 7.8 mph 11.5 mph 72 % 0.00 in
09:03 58.4 °F 49.0 °F 29.63 in NW 6.7 mph 15.0 mph 71 % 0.00 in
09:08 58.6 °F 48.8 °F 29.63 in WNW 4.1 mph 9.2 mph 70 % 0.00 in
09:13 58.6 °F 48.5 °F 29.63 in WNW 6.6 mph 13.8 mph 69 % 0.00 in
09:18 58.7 °F 48.6 °F 29.63 in WNW 4.2 mph 11.5 mph 69 % 0.00 in
09:23 58.8 °F 48.3 °F 29.63 in NNW 4.4 mph 11.5 mph 68 % 0.00 in
09:28 58.9 °F 49.1 °F 29.64 in WNW 2.2 mph 12.0 mph 70 % 0.00 in
09:34 59.2 °F 49.0 °F 29.63 in NW 4.4 mph 8.1 mph 69 % 0.00 in
09:39 59.4 °F 48.8 °F 29.63 in WNW 6.0 mph 11.5 mph 68 % 0.00 in
09:44 59.5 °F 49.3 °F 29.63 in NNW 3.2 mph 9.2 mph 69 % 0.00 in
09:49 59.7 °F 48.7 °F 29.63 in West 6.1 mph 10.4 mph 67 % 0.00 in
09:54 60.0 °F 49.4 °F 29.64 in WNW 6.7 mph 11.5 mph 68 % 0.00 in
09:59 60.3 °F 49.7 °F 29.63 in WNW 6.7 mph 12.7 mph 68 % 0.00 in
10:04 60.7 °F 48.4 °F 29.63 in NW 6.7 mph 11.5 mph 64 % 0.00 in
10:09 61.2 °F 48.5 °F 29.63 in WNW 9.9 mph 16.1 mph 63 % 0.00 in
10:14 61.5 °F 48.4 °F 29.63 in WNW 8.5 mph 16.1 mph 62 % 0.00 in
10:19 62.0 °F 48.8 °F 29.64 in West 10.9 mph 18.4 mph 62 % 0.00 in
10:24 62.2 °F 49.4 °F 29.64 in NE 5.2 mph 11.5 mph 63 % 0.00 in
10:29 62.3 °F 49.5 °F 29.64 in NW 3.1 mph 11.5 mph 63 % 0.00 in
10:34 62.4 °F 49.2 °F 29.64 in WNW 8.0 mph 13.8 mph 62 % 0.00 in
10:39 62.5 °F 49.3 °F 29.64 in NW 5.5 mph 15.0 mph 62 % 0.00 in
10:44 62.6 °F 49.0 °F 29.65 in WNW 7.4 mph 16.0 mph 61 % 0.00 in
10:49 62.6 °F 49.0 °F 29.64 in NW 4.7 mph 8.1 mph 61 % 0.00 in
10:54 62.6 °F 49.0 °F 29.65 in WNW 7.0 mph 11.5 mph 61 % 0.00 in
10:59 62.5 °F 48.9 °F 29.65 in NW 4.5 mph 11.5 mph 61 % 0.00 in
11:04 62.5 °F 48.9 °F 29.64 in WNW 3.1 mph 9.0 mph 61 % 0.00 in
11:09 62.4 °F 49.2 °F 29.64 in NNE 4.9 mph 9.2 mph 62 % 0.00 in
11:14 62.8 °F 50.0 °F 29.64 in North 7.8 mph 12.7 mph 63 % 0.00 in
11:19 63.5 °F 49.4 °F 29.64 in NW 5.6 mph 10.0 mph 60 % 0.00 in
11:24 64.5 °F 50.3 °F 29.65 in NNW 6.3 mph 11.5 mph 60 % 0.00 in
11:29 65.0 °F 51.2 °F 29.65 in WNW 4.1 mph 8.1 mph 61 % 0.00 in
11:30 65.0 °F 50.3 °F 29.65 in NNW 7.8 mph 14.0 mph 59 % 0.00 in
11:35 64.7 °F 48.6 °F 29.65 in NW 8.6 mph 11.5 mph 56 % 0.00 in
11:40 64.7 °F 50.5 °F 29.65 in NNW 5.1 mph 12.0 mph 60 % 0.00 in
11:45 65.2 °F 51.0 °F 29.65 in NE 5.0 mph 11.5 mph 60 % 0.00 in
11:50 65.8 °F 50.6 °F 29.65 in North 5.3 mph 11.5 mph 58 % 0.00 in
11:55 66.0 °F 50.3 °F 29.65 in WNW 6.0 mph 13.8 mph 57 % 0.00 in
12:00 65.8 °F 50.1 °F 29.65 in WNW 2.7 mph 13.8 mph 57 % 0.00 in
12:05 66.1 °F 50.9 °F 29.65 in WNW 4.9 mph 8.1 mph 58 % 0.00 in
12:10 66.3 °F 50.1 °F 29.65 in WNW 5.2 mph 10.4 mph 56 % 0.00 in
12:15 66.0 °F 49.4 °F 29.65 in WNW 5.1 mph 9.2 mph 55 % 0.00 in
12:20 66.0 °F 49.4 °F 29.65 in WNW 7.2 mph 12.7 mph 55 % 0.00 in
12:25 66.2 °F 49.1 °F 29.65 in West 7.5 mph 13.8 mph 54 % 0.00 in
12:30 66.4 °F 50.2 °F 29.65 in ENE 6.9 mph 13.8 mph 56 % 0.00 in
12:31 66.4 °F 50.2 °F 29.65 in SW 5.6 mph 13.8 mph 56 % 0.00 in
12:36 66.3 °F 49.7 °F 29.65 in WNW 6.0 mph 18.0 mph 55 % 0.00 in
12:41 66.1 °F 49.5 °F 29.65 in NW 8.0 mph 14.0 mph 55 % 0.00 in
12:46 65.9 °F 48.7 °F 29.65 in NW 9.0 mph 16.0 mph 54 % 0.00 in
12:51 65.6 °F 49.0 °F 29.65 in NW 9.1 mph 12.7 mph 55 % 0.00 in
12:56 65.7 °F 50.5 °F 29.65 in NW 7.0 mph 14.0 mph 58 % 0.00 in
13:01 66.1 °F 50.9 °F 29.65 in NW 5.5 mph 10.4 mph 58 % 0.00 in
13:06 66.3 °F 50.6 °F 29.66 in NW 7.0 mph 14.0 mph 57 % 0.00 in
13:11 66.3 °F 49.6 °F 29.65 in NW 7.0 mph 14.0 mph 55 % 0.00 in
13:16 66.1 °F 49.9 °F 29.66 in West 4.8 mph 13.0 mph 56 % 0.00 in
13:21 65.9 °F 48.7 °F 29.66 in WNW 9.0 mph 16.0 mph 54 % 0.00 in
13:26 65.8 °F 50.6 °F 29.66 in WNW 5.0 mph 21.0 mph 58 % 0.00 in
13:31 65.8 °F 50.6 °F 29.66 in WNW 5.0 mph 10.0 mph 58 % 0.00 in
13:36 65.8 °F 49.7 °F 29.66 in WNW 3.0 mph 12.0 mph 56 % 0.00 in
13:41 65.4 °F 49.3 °F 29.66 in NW 6.0 mph 13.0 mph 56 % 0.00 in
13:46 64.9 °F 48.8 °F 29.66 in NW 6.0 mph 17.0 mph 56 % 0.00 in
13:51 64.2 °F 48.6 °F 29.66 in WNW 7.0 mph 15.0 mph 57 % 0.00 in
13:55 63.7 °F 48.2 °F 29.66 in WNW 6.2 mph 16.1 mph 57 % 0.00 in
14:01 63.6 °F 48.5 °F 29.66 in NW 7.1 mph 11.5 mph 58 % 0.00 in
14:06 63.5 °F 49.4 °F 29.67 in NW 5.0 mph 15.0 mph 60 % 0.00 in
14:11 63.3 °F 49.2 °F 29.67 in NW 7.0 mph 15.0 mph 60 % 0.00 in
14:16 63.0 °F 48.9 °F 29.67 in NW 6.0 mph 18.0 mph 60 % 0.00 in
14:21 62.9 °F 48.8 °F 29.67 in WNW 7.0 mph 15.0 mph 60 % 0.00 in
14:26 62.7 °F 49.1 °F 29.67 in NW 5.0 mph 14.0 mph 61 % 0.00 in
14:31 62.6 °F 48.5 °F 29.68 in WNW 5.0 mph 14.0 mph 60 % 0.00 in
14:36 62.6 °F 49.0 °F 29.68 in NW 7.0 mph 13.0 mph 61 % 0.00 in
14:41 62.6 °F 49.8 °F 29.68 in NW 3.0 mph 10.0 mph 63 % 0.00 in
14:46 62.5 °F 50.2 °F 29.68 in NW 3.0 mph 12.0 mph 64 % 0.00 in
14:51 62.4 °F 49.2 °F 29.68 in NW 5.0 mph 12.0 mph 62 % 0.00 in
14:56 62.5 °F 49.3 °F 29.68 in NW 7.0 mph 12.0 mph 62 % 0.00 in
15:01 62.6 °F 49.8 °F 29.68 in WSW 8.1 mph 10.4 mph 63 % 0.00 in
15:06 62.8 °F 49.6 °F 29.68 in WNW 3.0 mph 17.0 mph 62 % 0.00 in
15:11 62.9 °F 48.8 °F 29.67 in WNW 7.0 mph 16.0 mph 60 % 0.00 in
15:16 63.1 °F 49.4 °F 29.68 in WNW 6.0 mph 13.0 mph 61 % 0.00 in
15:21 63.4 °F 50.1 °F 29.67 in NW 6.0 mph 12.0 mph 62 % 0.00 in
15:26 63.9 °F 50.2 °F 29.67 in NW 5.0 mph 14.0 mph 61 % 0.00 in
15:31 64.6 °F 50.9 °F 29.67 in NW 6.0 mph 13.0 mph 61 % 0.00 in
15:36 65.3 °F 50.1 °F 29.67 in NW 7.0 mph 15.0 mph 58 % 0.00 in
15:41 65.9 °F 51.2 °F 29.67 in NW 5.0 mph 12.0 mph 59 % 0.00 in
15:46 66.5 °F 51.3 °F 29.67 in WNW 7.0 mph 14.0 mph 58 % 0.00 in
15:51 66.8 °F 50.6 °F 29.67 in WNW 4.5 mph 12.7 mph 56 % 0.00 in
15:56 67.0 °F 50.3 °F 29.67 in WNW 7.0 mph 14.0 mph 55 % 0.00 in
16:01 67.3 °F 50.1 °F 29.68 in WNW 4.3 mph 11.5 mph 54 % 0.00 in
16:06 67.4 °F 49.7 °F 29.68 in NW 3.3 mph 17.3 mph 53 % 0.00 in
16:11 67.1 °F 49.4 °F 29.68 in WSW 4.9 mph 11.5 mph 53 % 0.00 in
16:16 67.1 °F 50.9 °F 29.68 in WNW 3.2 mph 10.4 mph 56 % 0.00 in
16:17 67.2 °F 51.0 °F 29.68 in NNW 4.0 mph 7.0 mph 56 % 0.00 in
16:22 67.3 °F 50.1 °F 29.68 in NNW 4.0 mph 10.4 mph 54 % 0.00 in
16:27 67.3 °F 49.6 °F 29.68 in WNW 6.5 mph 11.5 mph 53 % 0.00 in
16:32 67.4 °F 50.7 °F 29.69 in WNW 5.6 mph 12.0 mph 55 % 0.00 in
16:37 67.5 °F 49.3 °F 29.69 in WNW 4.9 mph 11.5 mph 52 % 0.00 in
16:42 67.6 °F 49.9 °F 29.69 in West 6.9 mph 13.8 mph 53 % 0.00 in
16:47 67.6 °F 49.3 °F 29.69 in NW 6.4 mph 13.8 mph 52 % 0.00 in
16:52 67.4 °F 50.2 °F 29.69 in WNW 1.7 mph 7.0 mph 54 % 0.00 in
16:57 67.3 °F 49.6 °F 29.69 in WNW 5.5 mph 11.5 mph 53 % 0.00 in
17:02 67.2 °F 49.5 °F 29.69 in WNW 5.3 mph 8.1 mph 53 % 0.00 in
17:07 67.0 °F 49.3 °F 29.70 in WNW 5.5 mph 8.1 mph 53 % 0.00 in
17:12 66.7 °F 49.5 °F 29.70 in NW 3.6 mph 6.9 mph 54 % 0.00 in
17:17 66.5 °F 49.8 °F 29.70 in WSW 2.9 mph 6.9 mph 55 % 0.00 in
17:22 66.3 °F 48.7 °F 29.71 in NW 6.5 mph 11.5 mph 53 % 0.00 in
17:27 66.1 °F 49.5 °F 29.70 in NW 5.0 mph 10.4 mph 55 % 0.00 in
17:32 66.0 °F 48.9 °F 29.71 in NNW 3.8 mph 9.2 mph 54 % 0.00 in
17:37 65.9 °F 48.8 °F 29.71 in NE 5.3 mph 10.0 mph 54 % 0.00 in
17:42 65.8 °F 49.2 °F 29.71 in NNW 5.5 mph 10.4 mph 55 % 0.00 in
17:47 65.7 °F 48.6 °F 29.71 in WNW 5.3 mph 12.7 mph 54 % 0.00 in
17:52 65.6 °F 48.5 °F 29.72 in NE 2.8 mph 11.5 mph 54 % 0.00 in
17:57 65.4 °F 47.8 °F 29.72 in NNW 5.0 mph 8.1 mph 53 % 0.00 in
18:03 65.3 °F 48.2 °F 29.72 in WNW 5.8 mph 13.0 mph 54 % 0.00 in
18:08 65.2 °F 47.6 °F 29.72 in NNW 6.4 mph 17.3 mph 53 % 0.00 in
18:13 65.0 °F 48.4 °F 29.73 in North 2.5 mph 9.0 mph 55 % 0.00 in
18:18 64.9 °F 47.4 °F 29.73 in NNW 3.9 mph 10.4 mph 53 % 0.00 in
18:23 65.0 °F 47.9 °F 29.73 in North 6.3 mph 11.5 mph 54 % 0.00 in
18:28 65.0 °F 47.9 °F 29.73 in NW 2.7 mph 11.5 mph 54 % 0.00 in
18:33 65.0 °F 47.9 °F 29.73 in WNW 2.9 mph 10.4 mph 54 % 0.00 in
18:38 64.9 °F 47.9 °F 29.74 in ENE 3.4 mph 10.4 mph 54 % 0.00 in
18:43 64.7 °F 47.7 °F 29.74 in NW 3.7 mph 6.9 mph 54 % 0.00 in
18:48 64.6 °F 48.1 °F 29.74 in WNW 4.4 mph 10.4 mph 55 % 0.00 in
18:53 64.6 °F 48.5 °F 29.75 in NW 4.0 mph 11.5 mph 56 % 0.00 in
18:58 64.4 °F 47.9 °F 29.75 in NNE 2.3 mph 8.1 mph 55 % 0.00 in
19:03 64.3 °F 47.3 °F 29.75 in North 3.4 mph 10.4 mph 54 % 0.00 in
19:08 64.2 °F 47.7 °F 29.75 in NNW 4.2 mph 12.7 mph 55 % 0.00 in
19:13 64.1 °F 48.1 °F 29.75 in West 3.3 mph 5.8 mph 56 % 0.00 in
19:18 63.9 °F 47.9 °F 29.76 in North 4.0 mph 9.0 mph 56 % 0.00 in
19:23 63.7 °F 47.7 °F 29.75 in NNE 3.8 mph 8.1 mph 56 % 0.00 in
19:28 63.6 °F 47.6 °F 29.76 in NW 2.2 mph 4.0 mph 56 % 0.00 in
19:33 63.5 °F 48.0 °F 29.76 in WNW 1.7 mph 4.6 mph 57 % 0.00 in
19:38 63.4 °F 47.9 °F 29.77 in North 1.8 mph 4.6 mph 57 % 0.00 in
19:43 63.1 °F 48.1 °F 29.77 in WNW 3.3 mph 5.0 mph 58 % 0.00 in
19:48 62.9 °F 48.3 °F 29.77 in WNW 3.7 mph 10.0 mph 59 % 0.00 in
19:53 62.7 °F 48.2 °F 29.77 in NW 4.8 mph 11.5 mph 59 % 0.00 in
19:58 62.5 °F 48.4 °F 29.77 in NW 4.6 mph 11.5 mph 60 % 0.00 in
20:03 62.4 °F 48.3 °F 29.78 in NW 7.3 mph 10.4 mph 60 % 0.00 in
20:09 62.3 °F 47.8 °F 29.79 in NNW 5.1 mph 10.4 mph 59 % 0.00 in
20:14 62.2 °F 48.1 °F 29.79 in NW 6.4 mph 12.7 mph 60 % 0.00 in
20:19 62.2 °F 48.1 °F 29.79 in NW 3.7 mph 8.1 mph 60 % 0.00 in
20:24 62.1 °F 48.0 °F 29.79 in WNW 4.2 mph 9.2 mph 60 % 0.00 in
20:29 62.0 °F 48.0 °F 29.80 in WNW 4.8 mph 10.4 mph 60 % 0.00 in
20:34 61.9 °F 47.9 °F 29.80 in WNW 2.7 mph 9.0 mph 60 % 0.00 in
20:39 61.8 °F 47.8 °F 29.80 in WSW 5.8 mph 10.4 mph 60 % 0.00 in
20:44 61.7 °F 47.7 °F 29.80 in West 6.2 mph 12.0 mph 60 % 0.00 in
20:49 61.6 °F 47.6 °F 29.81 in NW 4.7 mph 6.9 mph 60 % 0.00 in
20:54 61.6 °F 47.6 °F 29.81 in West 6.3 mph 11.5 mph 60 % 0.00 in
20:59 61.5 °F 47.5 °F 29.82 in WNW 4.5 mph 10.4 mph 60 % 0.00 in
21:04 61.4 °F 47.4 °F 29.82 in NW 3.3 mph 7.0 mph 60 % 0.00 in
21:09 61.4 °F 47.4 °F 29.83 in NW 5.2 mph 10.4 mph 60 % 0.00 in
21:14 61.3 °F 47.3 °F 29.83 in WNW 3.8 mph 5.8 mph 60 % 0.00 in
21:19 61.3 °F 47.3 °F 29.83 in West 5.5 mph 12.7 mph 60 % 0.00 in
21:24 61.3 °F 47.3 °F 29.83 in WNW 5.0 mph 9.2 mph 60 % 0.00 in
21:29 61.2 °F 47.2 °F 29.83 in WNW 6.7 mph 11.5 mph 60 % 0.00 in
21:34 61.2 °F 47.6 °F 29.83 in NW 2.7 mph 6.9 mph 61 % 0.00 in
21:39 61.1 °F 47.5 °F 29.83 in WNW 3.1 mph 6.9 mph 61 % 0.00 in
21:44 61.0 °F 47.4 °F 29.83 in West 5.4 mph 7.0 mph 61 % 0.00 in
21:49 60.9 °F 47.4 °F 29.83 in WNW 3.7 mph 10.4 mph 61 % 0.00 in
21:54 60.8 °F 47.3 °F 29.83 in West 2.9 mph 6.9 mph 61 % 0.00 in
21:59 60.7 °F 47.2 °F 29.83 in West 2.0 mph 5.8 mph 61 % 0.00 in
22:05 60.6 °F 47.1 °F 29.83 in NW 4.9 mph 5.8 mph 61 % 0.00 in
22:10 60.5 °F 47.0 °F 29.83 in West 3.0 mph 5.8 mph 61 % 0.00 in
22:15 60.4 °F 47.3 °F 29.83 in West 2.2 mph 5.8 mph 62 % 0.00 in
22:20 60.3 °F 47.2 °F 29.83 in West 4.6 mph 6.0 mph 62 % 0.00 in
22:25 60.2 °F 47.6 °F 29.83 in WNW 1.9 mph 5.0 mph 63 % 0.00 in
22:30 60.1 °F 47.5 °F 29.83 in SW 3.2 mph 4.6 mph 63 % 0.00 in
22:35 60.0 °F 47.8 °F 29.83 in NW 2.9 mph 5.8 mph 64 % 0.00 in
22:40 59.9 °F 47.7 °F 29.84 in WSW 4.3 mph 8.1 mph 64 % 0.00 in
22:45 59.8 °F 47.2 °F 29.84 in West 1.3 mph 4.6 mph 63 % 0.00 in
22:50 59.7 °F 47.1 °F 29.84 in WSW 2.3 mph 5.8 mph 63 % 0.00 in
22:55 59.6 °F 47.4 °F 29.83 in WSW 3.0 mph 5.8 mph 64 % 0.00 in
23:00 59.6 °F 47.4 °F 29.83 in West 2.6 mph 5.8 mph 64 % 0.00 in
23:05 59.6 °F 47.0 °F 29.84 in WSW 1.8 mph 5.8 mph 63 % 0.00 in
23:10 59.5 °F 47.3 °F 29.84 in SW 1.5 mph 8.1 mph 64 % 0.00 in
23:15 59.4 °F 47.2 °F 29.84 in WSW 3.9 mph 8.1 mph 64 % 0.00 in
23:20 59.4 °F 47.2 °F 29.84 in WNW 2.9 mph 3.5 mph 64 % 0.00 in
23:25 59.3 °F 47.1 °F 29.85 in West 6.7 mph 9.2 mph 64 % 0.00 in
23:30 59.3 °F 47.1 °F 29.84 in SSW 3.4 mph 10.4 mph 64 % 0.00 in
23:35 59.2 °F 47.0 °F 29.85 in SW 4.8 mph 5.8 mph 64 % 0.00 in
23:40 59.2 °F 47.0 °F 29.86 in WNW 2.9 mph 8.1 mph 64 % 0.00 in
23:45 59.1 °F 46.9 °F 29.86 in WNW 2.5 mph 6.9 mph 64 % 0.00 in
23:50 59.1 °F 47.3 °F 29.86 in WNW 2.2 mph 3.5 mph 65 % 0.00 in
23:55 59.1 °F 46.9 °F 29.86 in West 4.2 mph 4.6 mph 64 % 0.00 in
Crab Meadow Weather
Compliments of Weather Underground - 3 mb

Script developed by  Jim McMurry - jmcmurry@mwt.net Adapted for the template by  Wim van der Kuil - Leuven-Template.eu

Recycling: In 2006, a record 53.4 percent of the paper consumed in the U.S. was recovered for recycling. Americans recovered an extraordinary 53.5 million tons, averaging 360 pounds per person.